Big Delta, AK

10:48 AM AKDT on May 25, 2017 (GMT -0800)
Allen Army Air Field

Weather History for PABI - February, 2014

Change the Weather History Date:

Thursday, February 6, 2014

  Actual Average Record
Temperature  
Mean Temperature 10 °F -  
Max Temperature 19 °F 12 °F 37 °F (2003)
Min Temperature 1 °F 0 °F -44 °F (2008)
Degree Days  
Heating Degree Days 55    
Moisture  
Dew Point 10 °F    
Average Humidity 88    
Maximum Humidity 96    
Minimum Humidity 76    
Precipitation  
Precipitation 0.16 in - - ()
Sea Level Pressure  
Sea Level Pressure 30.22 in    
Wind  
Wind Speed 6 mph (NW)    
Max Wind Speed 21 mph    
Max Gust Speed 26 mph    
Visibility 4 miles    
Events Fog , Snow    
Averages and records for this station are not official NWS values.
T = Trace of Precipitation, MM = Missing Value Source: NWS Daily Summary

Daily Weather History Graph

Daily Weather History Graph

Search for Another Location

Airport or City:

Trip Planner

Search our weather history database for the weather conditions in past years. The results will help you decide how hot, cold, wet, or windy it might be!

Date:

Astronomy

Feb. 06, 2014 Rise Set
Actual Time 9:05 AM AKST 4:49 PM AKST
Civil Twilight 8:11 AM AKST 5:43 PM AKST
Nautical Twilight 7:14 AM AKST 6:40 PM AKST
Astronomical Twilight 6:19 AM AKST 7:35 PM AKST
Moon 10:17 AM AKST (2/6) 2:35 AM AKST (2/6)
Length of Visible Light 9h 31m
Length of Day
7h 43m
Waxing Crescent, 51% of the Moon is Illuminated
Feb 6
Waxing Crescent
Feb 14
Full
Feb 22
Last Quarter
Feb 28
New
Mar 8
First Quarter

Hourly Weather History & Observations

Time (AKST) Temp. Windchill Dew Point Humidity Pressure Visibility Wind Dir Wind Speed Gust Speed Precip Events Conditions
12:00 AM 8.1 °F 1.4 °F 3.9 °F 83% 30.58 in 10.0 mi ESE 3.5 mph - N/A   Overcast
12:53 AM 9.0 °F 2.4 °F 3.9 °F 80% 30.70 in 10.0 mi ESE 3.5 mph - N/A   Overcast
1:53 AM 9.0 °F 0.6 °F 5.0 °F 84% 30.69 in 10.0 mi ESE 4.6 mph - N/A   Overcast
2:22 AM 9.0 °F 2.4 °F 5.0 °F 84% 30.54 in 10.0 mi East 3.5 mph - N/A   Overcast
2:53 AM 9.0 °F 0.6 °F 5.0 °F 84% 30.67 in 10.0 mi East 4.6 mph - N/A   Overcast
3:46 AM 9.0 °F 2.4 °F 5.0 °F 84% 30.50 in 10.0 mi East 3.5 mph - N/A   Overcast
3:53 AM 9.0 °F 0.6 °F 5.0 °F 84% 30.63 in 10.0 mi East 4.6 mph - N/A   Overcast
4:53 AM 9.0 °F -0.9 °F 5.0 °F 84% 30.59 in 10.0 mi ESE 5.8 mph - N/A   Overcast
5:53 AM 9.0 °F 2.4 °F 6.1 °F 88% 30.55 in 10.0 mi East 3.5 mph - N/A   Overcast
6:53 AM 9.0 °F 2.4 °F 8.1 °F 96% 30.50 in 8.0 mi ESE 3.5 mph - 0.00 in Snow Light Snow
7:53 AM 10.0 °F 3.6 °F 8.1 °F 92% 30.44 in 9.0 mi SE 3.5 mph - 0.00 in Snow Light Snow
8:40 AM 10.0 °F 1.8 °F 8.1 °F 92% 30.25 in 4.0 mi ESE 4.6 mph - 0.00 in Snow Light Snow
8:53 AM 10.0 °F 3.6 °F 8.1 °F 92% 30.38 in 3.0 mi East 3.5 mph - 0.00 in Snow Light Snow
9:10 AM 10.0 °F 0.4 °F 8.1 °F 92% 30.22 in 2.0 mi ESE 5.8 mph - 0.00 in Snow Light Snow
9:38 AM 10.0 °F 3.6 °F 7.0 °F 87% 30.22 in 1.5 mi ENE 3.5 mph - 0.01 in Snow Light Snow
9:53 AM 10.0 °F 1.8 °F 7.0 °F 87% 30.35 in 0.8 mi ENE 4.6 mph - 0.02 in Snow Light Snow
10:02 AM 10.0 °F 3.6 °F 7.0 °F 87% 30.21 in 0.5 mi East 3.5 mph - 0.01 in Fog , Snow Light Snow
10:15 AM 10.0 °F 3.6 °F 7.0 °F 87% 30.20 in 1.0 mi ESE 3.5 mph - 0.01 in Snow Light Snow
10:17 AM 10.0 °F 1.8 °F 7.0 °F 87% 30.20 in 0.8 mi ESE 4.6 mph - 0.02 in Snow Light Snow
10:28 AM 10.0 °F 1.8 °F 7.0 °F 87% 30.19 in 0.2 mi SSE 4.6 mph - 0.02 in Fog , Snow Snow
10:53 AM 10.9 °F 4.7 °F 8.1 °F 88% 30.30 in 0.5 mi SSW 3.5 mph - 0.04 in Fog , Snow Snow
10:58 AM 10.9 °F 2.9 °F 9.0 °F 92% 30.15 in 0.8 mi SSW 4.6 mph - 0.00 in Snow Light Snow
11:06 AM 12.0 °F 4.1 °F 9.0 °F 88% 30.14 in 1.0 mi South 4.6 mph - 0.01 in Snow Light Snow
11:53 AM 12.9 °F - 10.0 °F 88% 30.22 in 1.8 mi Calm Calm - 0.01 in Snow Light Snow
12:07 PM 12.9 °F 6.9 °F 10.0 °F 88% 30.08 in 2.0 mi WNW 3.5 mph - 0.01 in Snow Light Snow
12:18 PM 15.1 °F - 12.0 °F 88% 30.08 in 1.0 mi Calm Calm - 0.01 in Snow Light Snow
12:24 PM 16.0 °F 7.4 °F 12.9 °F 88% 30.08 in 0.8 mi West 5.8 mph - 0.01 in Snow Light Snow
12:31 PM 16.0 °F 7.4 °F 12.9 °F 88% 30.08 in 0.5 mi West 5.8 mph - 0.02 in Fog , Snow Snow
12:44 PM 14.0 °F 5.1 °F 12.0 °F 92% 30.08 in 0.2 mi West 5.8 mph - 0.03 in Fog , Snow Snow
12:53 PM 12.0 °F 2.7 °F 10.0 °F 92% 30.20 in 0.2 mi NW 5.8 mph - 0.04 in Fog , Snow Snow
1:09 PM 12.0 °F 5.9 °F 9.0 °F 88% 30.07 in 0.8 mi West 3.5 mph - 0.01 in Snow Light Snow
1:23 PM 12.9 °F 3.8 °F 10.9 °F 92% 30.06 in 0.8 mi West 5.8 mph - 0.01 in Snow Light Snow
1:39 PM 17.1 °F 5.0 °F 14.0 °F 88% 30.05 in 0.5 mi West 10.4 mph 18.4 mph 0.02 in Fog , Snow Snow
1:46 PM 17.1 °F 5.8 °F 14.0 °F 88% 30.05 in 0.5 mi West 9.2 mph - 0.02 in Fog , Snow Light Snow
1:53 PM 17.1 °F 5.8 °F 15.1 °F 92% 30.17 in 0.5 mi WNW 9.2 mph - 0.02 in Fog , Snow Light Snow
2:14 PM 16.0 °F 4.4 °F 14.0 °F 92% 30.03 in 0.8 mi NW 9.2 mph - 0.01 in Snow Light Snow
2:26 PM 17.1 °F 3.0 °F 14.0 °F 88% 30.03 in 1.0 mi NW 13.8 mph - 0.01 in Snow Light Snow
2:33 PM 18.0 °F 3.6 °F 15.1 °F 88% 30.03 in 0.8 mi NW 15.0 mph - 0.01 in Snow Light Snow
2:40 PM 19.0 °F 2.7 °F 15.1 °F 85% 30.03 in 1.2 mi WNW 20.7 mph 26.5 mph 0.01 in Snow Light Snow
2:53 PM 19.0 °F 5.0 °F 16.0 °F 88% 30.15 in 1.5 mi NW 15.0 mph - 0.01 in Snow Light Snow
3:09 PM 19.9 °F 6.2 °F 16.0 °F 85% 30.02 in 0.5 mi NW 15.0 mph - 0.00 in Fog , Snow Light Snow
3:19 PM 19.0 °F 5.6 °F 16.0 °F 88% 30.02 in 1.0 mi WNW 13.8 mph - 0.00 in Snow Light Snow
3:43 PM 19.0 °F 3.6 °F 16.0 °F 88% 30.02 in 0.8 mi WNW 18.4 mph - 0.00 in Snow Light Snow
3:53 PM 19.0 °F 4.0 °F 15.1 °F 85% 30.14 in 0.5 mi NW 17.3 mph - 0.00 in Fog , Snow Snow
4:02 PM 18.0 °F 3.6 °F 15.1 °F 88% 30.03 in 0.5 mi NW 15.0 mph 24.2 mph 0.00 in Fog , Snow Snow
4:48 PM 17.6 °F 2.2 °F 14.0 °F 86% 30.02 in 1.0 mi NW 17.3 mph - 0.01 in Snow Light Snow
4:53 PM 18.0 °F 3.6 °F 14.0 °F 84% 30.14 in 1.5 mi NW 15.0 mph - 0.01 in Snow Light Snow
5:53 PM 17.1 °F 3.6 °F 14.0 °F 88% 30.14 in 2.0 mi NW 12.7 mph - 0.00 in Snow Light Snow
6:15 PM 17.1 °F 3.6 °F 14.0 °F 88% 30.02 in 1.8 mi NW 12.7 mph - 0.00 in Snow Light Snow
6:23 PM 17.1 °F 3.6 °F 14.0 °F 88% 30.02 in 2.0 mi NW 12.7 mph - 0.00 in Snow Light Snow
6:37 PM 17.1 °F 4.3 °F 14.0 °F 88% 30.02 in 1.8 mi NW 11.5 mph - 0.00 in Snow Light Snow
6:53 PM 17.1 °F 4.3 °F 14.0 °F 88% 30.15 in 2.0 mi NW 11.5 mph - 0.00 in Snow Light Snow
7:11 PM 16.0 °F 2.9 °F 12.9 °F 88% 30.02 in 3.0 mi NW 11.5 mph - 0.01 in Snow Light Snow
7:53 PM 15.1 °F 2.5 °F 12.9 °F 91% 30.14 in 10.0 mi WNW 10.4 mph - 0.01 in Snow Light Snow
8:53 PM 12.9 °F 0.7 °F 10.9 °F 92% 30.16 in 9.0 mi NW 9.2 mph - 0.00 in   Mostly Cloudy
9:53 PM 12.9 °F 2.6 °F 10.0 °F 88% 30.18 in 10.0 mi WSW 6.9 mph - N/A   Overcast
10:53 PM 10.9 °F -1.8 °F 7.0 °F 84% 30.22 in 10.0 mi WNW 9.2 mph - N/A   Overcast
11:53 PM 9.0 °F -3.2 °F 7.0 °F 92% 30.23 in 10.0 mi West 8.1 mph - N/A   Clear